This is the latest recevied weather packets stored in our database for station/object F4IVW-13. If no packets are shown the sender has not sent any weather packets the latest 10 day(s).
| Time | Temp. | Humidity | Pressure | Rain* | Wind** | Luminosity | Snow |
|---|---|---|---|---|---|---|---|
| 1777974715 | 15.56° C | 99% | 1014.4 hPa | 0 mm | - | 0 W/m² | - |
| 1777973438 | 16.67° C | 99% | 1014.1 hPa | 0 mm | - | 9 W/m² | - |
| 1777973121 | 15.56° C | 99% | 1014.1 hPa | 0 mm | - | 14 W/m² | - |
| 1777972804 | 15° C | 99% | 1014.1 hPa | 0 mm | - | 46 W/m² | - |
| 1777972168 | 15° C | 99% | 1014.2 hPa | 0 mm | - | 5 W/m² | - |
| 1777970902 | 13.33° C | 99% | 1014.1 hPa | 0 mm | - | 11 W/m² | - |
| 1777970576 | 13.33° C | 99% | 1014.2 hPa | 0 mm | - | 7 W/m² | - |
| 1777970258 | 13.33° C | 99% | 1014.2 hPa | 0 mm | - | 5 W/m² | - |
| 1777969939 | 13.33° C | 99% | 1014.2 hPa | 0 mm | - | 2 W/m² | - |
| 1777969622 | 13.33° C | 99% | 1014.1 hPa | 0 mm | - | 3 W/m² | - |
| 1777969303 | 13.33° C | 99% | 1014.1 hPa | 0 mm | - | 5 W/m² | - |
| 1777968992 | 13.33° C | 99% | 1014.1 hPa | 0 mm | - | 9 W/m² | - |
| 1777968667 | 12.78° C | 99% | 1014.2 hPa | 0 mm | - | 4 W/m² | - |
| 1777968350 | 12.78° C | 99% | 1014.2 hPa | 0 mm | - | 7 W/m² | - |
| 1777968033 | 12.78° C | 99% | 1014.2 hPa | 0 mm | - | 4 W/m² | - |
| 1777967716 | 12.78° C | 99% | 1014.1 hPa | 0 mm | - | 3 W/m² | - |
| 1777967080 | 12.78° C | 99% | 1014.2 hPa | 0.25 mm | - | 5 W/m² | - |
| 1777966772 | 12.78° C | 99% | 1014.1 hPa | 0.25 mm | - | 3 W/m² | - |
| 1777964536 | 11.67° C | 99% | 1014 hPa | 0 mm | - | 48 W/m² | - |
| 1777958495 | 11.11° C | 99% | 1013.8 hPa | 0 mm | - | 0 W/m² | - |
| 1777957853 | 11.11° C | 99% | 1013.8 hPa | 0 mm | - | 0 W/m² | - |
| 1777954668 | 11.11° C | 99% | 1013.7 hPa | 0 mm | - | 0 W/m² | - |
| 1777952762 | 11.11° C | 99% | 1013.7 hPa | 0 mm | - | 0 W/m² | - |
| 1777952450 | 11.11° C | 99% | 1013.7 hPa | 0 mm | - | 0 W/m² | - |
| 1777951490 | 11.11° C | 99% | 1013.8 hPa | 0 mm | - | 0 W/m² | - |
* Rain latest hour (hover to see other rain measurements)
** Current wind speed in m/s (hover to see current wind gust speed)